• In Italy
  • List of Countries
  • For 7 days
  • Water Temperature
  • Satellite Maps
  • Weather Map
  • Weather Widgets
  • user-avatar
    Login

    Hourly Weather Canberra

    Today, 24 June, Sunday

    Time Temperature Precipitation Wind Pressure Humidity
    00:00 +3°C° 0 mm 1 mps 715 mmHg 81%
    01:00 +3°C° 0 mm 1 mps 715 mmHg 81%
    02:00 +3°C° 0 mm 1 mps 715 mmHg 82%
    03:00 +3°C° 0 mm 1 mps 715 mmHg 83%
    04:00 +2°C° 0 mm 1 mps 715 mmHg 85%
    05:00 +2°C° 0 mm 1 mps 715 mmHg 86%
    06:00 +2°C° 0 mm 1 mps 715 mmHg 87%
    07:00 +2°C° 0 mm 1 mps 716 mmHg 88%
    08:00 +5°C° 0 mm 1 mps 716 mmHg 76%
    09:00 +7°C° 0 mm 1 mps 716 mmHg 64%
    10:00 +10°C° 0 mm 1 mps 717 mmHg 52%
    11:00 +12°C° 0 mm 1 mps 716 mmHg 47%
    12:00 +13°C° 0 mm 1 mps 716 mmHg 42%
    13:00 +14°C° 0 mm 1 mps 716 mmHg 36%
    14:00 +14°C° 0 mm 1 mps 716 mmHg 40%
    15:00 +13°C° 0 mm 1 mps 716 mmHg 45%
    16:00 +12°C° 0 mm 1 mps 715 mmHg 49%
    17:00 +10°C° 0 mm 1 mps 716 mmHg 58%
    18:00 +7°C° 0 mm 1 mps 716 mmHg 68%
    19:00 +5°C° 0 mm 1 mps 716 mmHg 78%
    20:00 +4°C° 0 mm 1 mps 716 mmHg 79%
    21:00 +4°C° 0 mm 1 mps 717 mmHg 81%
    22:00 +3°C° 0 mm 1 mps 717 mmHg 82%
    23:00 +3°C° 0 mm 1 mps 717 mmHg 83%

    Tomorrow, 25 June, Monday

    Time Temperature Precipitation Wind Pressure Humidity
    00:00 +3°C° 0 mm 1 mps 717 mmHg 84%
    01:00 +3°C° 0 mm 1 mps 717 mmHg 86%
    02:00 +2°C° 0 mm 1 mps 717 mmHg 86%
    03:00 +2°C° 0 mm 1 mps 717 mmHg 85%
    04:00 +2°C° 0 mm 1 mps 717 mmHg 85%
    05:00 +2°C° 0 mm 1 mps 717 mmHg 85%
    06:00 +2°C° 0 mm 1 mps 717 mmHg 85%
    07:00 +2°C° 0 mm 1 mps 718 mmHg 85%
    08:00 +5°C° 0 mm 1 mps 718 mmHg 74%
    09:00 +6°C° 0 mm 0 mps 719 mmHg 63%
    10:00 +9°C° 0 mm 0 mps 719 mmHg 51%
    11:00 +10°C° 0 mm 0 mps 719 mmHg 47%
    12:00 +13°C° 0 mm 1 mps 718 mmHg 43%
    13:00 +14°C° 0 mm 1 mps 718 mmHg 38%
    14:00 +13°C° 0 mm 1 mps 718 mmHg 42%
    15:00 +13°C° 0 mm 1 mps 718 mmHg 45%
    16:00 +12°C° 0 mm 1 mps 717 mmHg 48%
    17:00 +10°C° 0 mm 1 mps 718 mmHg 57%
    18:00 +7°C° 0 mm 1 mps 718 mmHg 66%
    19:00 +4°C° 0 mm 0 mps 718 mmHg 75%
    20:00 +4°C° 0 mm 1 mps 718 mmHg 77%
    21:00 +4°C° 0 mm 1 mps 719 mmHg 79%
    22:00 +4°C° 0 mm 1 mps 719 mmHg 81%
    23:00 +3°C° 0 mm 1 mps 719 mmHg 83%

    Day after tomorrow, 26 June, Tuesday

    Time Temperature Precipitation Wind Pressure Humidity
    00:00 +3°C° 0 mm 1 mps 719 mmHg 85%
    01:00 +3°C° 0 mm 1 mps 719 mmHg 87%
    02:00 +3°C° 0 mm 1 mps 719 mmHg 87%
    03:00 +3°C° 0 mm 1 mps 719 mmHg 88%
    04:00 +3°C° 0 mm 1 mps 719 mmHg 89%
    05:00 +3°C° 0 mm 1 mps 719 mmHg 89%
    06:00 +3°C° 0 mm 1 mps 720 mmHg 90%
    07:00 +3°C° 0 mm 1 mps 720 mmHg 90%
    08:00 +5°C° 0 mm 1 mps 720 mmHg 80%
    09:00 +8°C° 0 mm 1 mps 721 mmHg 70%
    10:00 +11°C° 0 mm 1 mps 721 mmHg 59%
    11:00 +12°C° 0 mm 1 mps 720 mmHg 54%
    12:00 +13°C° 0 mm 1 mps 720 mmHg 48%
    13:00 +14°C° 0 mm 2 mps 720 mmHg 42%
    14:00 +14°C° 0 mm 1 mps 719 mmHg 45%
    15:00 +13°C° 0 mm 1 mps 719 mmHg 48%
    16:00 +13°C° 0 mm 1 mps 719 mmHg 51%
    17:00 +11°C° 0 mm 1 mps 719 mmHg 59%
    18:00 +9°C° 0 mm 1 mps 719 mmHg 67%
    19:00 +7°C° 0 mm 1 mps 719 mmHg 74%
    20:00 +7°C° 0 mm 1 mps 719 mmHg 79%
    21:00 +6°C° 0 mm 1 mps 720 mmHg 84%
    22:00 +6°C° 0 mm 1 mps 720 mmHg 88%
    23:00 +6°C° 0 mm 1 mps 720 mmHg 91%

    27 June, Wednesday

    Time Temperature Precipitation Wind Pressure Humidity
    00:00 +6°C° 0 mm 1 mps 719 mmHg 93%
    01:00 +6°C° 0 mm 1 mps 719 mmHg 96%
    02:00 +6°C° 0 mm 1 mps 719 mmHg 96%
    03:00 +6°C° 0 mm 1 mps 719 mmHg 97%
    04:00 +6°C° 0 mm 1 mps 718 mmHg 97%
    05:00 +5°C° 0 mm 1 mps 718 mmHg 97%
    06:00 +5°C° 0 mm 1 mps 718 mmHg 97%
    07:00 +5°C° 0 mm 1 mps 718 mmHg 97%
    08:00 +7°C° 0 mm 1 mps 719 mmHg 92%
    09:00 +8°C° 0 mm 1 mps 719 mmHg 88%
    10:00 +10°C° 0 mm 1 mps 719 mmHg 83%
    11:00 +10°C° 0 mm 1 mps 718 mmHg 81%
    12:00 +11°C° 0 mm 1 mps 717 mmHg 79%
    13:00 +12°C° 0 mm 1 mps 717 mmHg 76%
    14:00 +11°C° 0.1 mm 1 mps 716 mmHg 80%
    15:00 +11°C° 0.1 mm 1 mps 716 mmHg 83%
    16:00 +11°C° 0.1 mm 1 mps 716 mmHg 86%
    17:00 +10°C° 1.4 mm 1 mps 716 mmHg 90%
    18:00 +10°C° 1.4 mm 1 mps 716 mmHg 94%
    19:00 +9°C° 1.4 mm 1 mps 716 mmHg 98%
    20:00 +9°C° 2 mm 1 mps 716 mmHg 98%
    21:00 +9°C° 2 mm 1 mps 715 mmHg 98%
    22:00 +9°C° 2 mm 1 mps 715 mmHg 98%
    23:00 +9°C° 1.2 mm 1 mps 715 mmHg 98%

    28 June, Thursday

    Time Temperature Precipitation Wind Pressure Humidity
    00:00 +8°C° 1.2 mm 1 mps 715 mmHg 98%
    01:00 +8°C° 1.2 mm 1 mps 714 mmHg 98%
    02:00 +8°C° 0.2 mm 1 mps 714 mmHg 98%
    03:00 +8°C° 0.2 mm 1 mps 714 mmHg 98%
    04:00 +8°C° 0.2 mm 1 mps 714 mmHg 98%
    05:00 +7°C° 0 mm 1 mps 714 mmHg 98%
    06:00 +7°C° 0 mm 1 mps 714 mmHg 97%
    07:00 +7°C° 0 mm 1 mps 714 mmHg 97%
    08:00 +8°C° 0 mm 1 mps 714 mmHg 94%
    09:00 +9°C° 0 mm 1 mps 714 mmHg 91%
    10:00 +8°C° 0 mm 2 mps 714 mmHg 88%
    11:00 +9°C° 0 mm 2 mps 714 mmHg 82%
    12:00 +10°C° 0 mm 3 mps 713 mmHg 76%
    13:00 +11°C° 0 mm 3 mps 713 mmHg 70%
    14:00 +10°C° 0 mm 3 mps 713 mmHg 69%
    15:00 +10°C° 0 mm 3 mps 713 mmHg 69%
    16:00 +10°C° 0 mm 2 mps 712 mmHg 68%
    17:00 +8°C° 0 mm 2 mps 713 mmHg 76%
    18:00 +6°C° 0 mm 2 mps 713 mmHg 83%
    19:00 +5°C° 0 mm 1 mps 713 mmHg 91%
    20:00 +5°C° 0 mm 1 mps 713 mmHg 92%
    21:00 +5°C° 0 mm 1 mps 713 mmHg 92%
    22:00 +4°C° 0 mm 1 mps 713 mmHg 93%
    23:00 +4°C° 0 mm 1 mps 713 mmHg 94%

    29 June, Friday

    Time Temperature Precipitation Wind Pressure Humidity
    00:00 +4°C° 0 mm 1 mps 713 mmHg 94%
    01:00 +4°C° 0 mm 1 mps 713 mmHg 95%
    02:00 +4°C° 0 mm 1 mps 713 mmHg 95%
    03:00 +3°C° 0 mm 1 mps 712 mmHg 95%
    04:00 +3°C° 0 mm 1 mps 712 mmHg 95%
    05:00 +3°C° 0 mm 1 mps 712 mmHg 95%
    06:00 +4°C° 0 mm 1 mps 713 mmHg 95%
    07:00 +3°C° 0 mm 2 mps 713 mmHg 94%
    08:00 +4°C° 0 mm 2 mps 713 mmHg 86%
    09:00 +6°C° 0 mm 2 mps 713 mmHg 78%
    10:00 +7°C° 0 mm 2 mps 713 mmHg 70%
    11:00 +9°C° 0 mm 3 mps 713 mmHg 64%
    12:00 +10°C° 0 mm 3 mps 712 mmHg 58%
    13:00 +11°C° 0 mm 3 mps 712 mmHg 51%
    14:00 +10°C° 0 mm 3 mps 712 mmHg 54%
    15:00 +10°C° 0 mm 3 mps 712 mmHg 57%
    16:00 +10°C° 0 mm 3 mps 711 mmHg 60%
    17:00 +8°C° 0 mm 3 mps 712 mmHg 68%
    18:00 +6°C° 0 mm 2 mps 712 mmHg 76%
    19:00 +6°C° 0 mm 1 mps 712 mmHg 84%
    20:00 +6°C° 0 mm 1 mps 712 mmHg 85%
    21:00 +6°C° 0 mm 1 mps 712 mmHg 85%
    22:00 +6°C° 0 mm 1 mps 712 mmHg 85%
    23:00 +5°C° 0 mm 1 mps 712 mmHg 86%
    Show more